AirNav   Air Wisconsin Up To $57,000 Bonus
 
 665 users online  

0MU6 Bradbury-Rolf Memorial Heliport
Higginsville, Missouri, USA

GOING TO HIGGINSVILLE?


FAA INFORMATION EFFECTIVE 08 OCTOBER 2020

Location

FAA Identifier: 0MU6
Lat/Long: 39-04-25.4400N 093-44-09.2200W
39-04.424000N 093-44.153667W
39.0737333,-93.7358944
(estimated)
Elevation: 815 ft. / 248 m (estimated)
Variation: 04E (1995)
Time zone: UTC -5 (UTC -6 during Standard Time)
Zip code: 64037

Heliport Operations

Heliport use: Private use, MEDICAL
Activation date: 09/1996
Control tower: no
ARTCC: KANSAS CITY CENTER
FSS: COLUMBIA FLIGHT SERVICE STATION
Attendance: UNATNDD
Wind indicator: yes
Segmented circle: no
Lights: FOR FLOOD LGTS CALL 660-584-3832.

Heliport Communications

WX AWOS-3 at RCM (18 nm S): 119.575 (660-422-7010)

Nearby radio navigation aids

VOR radial/distance  VOR name  Freq  Var
ANXr087/18.3NAPOLEON VORTAC114.0007E
BQSr166/34.0BRAYMER VOR/DME111.2003E

Heliport Services

Runway Information

Helipad H1

Dimensions: 60 x 60 ft. / 18 x 18 m
Surface: concrete
Runway edge lights: FLD
Runway edge markings: MARKED WITH LETTER H.
Latitude: 39-04.424000N
Longitude: 093-44.153667W
Elevation: 815.0 ft.
Traffic pattern: leftleft

Heliport Ownership and Management from official FAA records

Ownership: Privately-owned
Owner: FAMILY PRACTICE ASSOC
1200 W 22ND
HIGGINSVILLE, MO 64037
Phone (660) 584-7751
Manager: ROD KIRCHHOFF
850 WILLOW CREEK LN
HIGGINSVILLE, MO 64037
Phone (816) 565-3685

Additional Remarks

A52-H1 30-40 FT PLINES MKD E & S OF HELIPAD.
FOR CD CTC WHITEMAN APCH AT 660-687-3132. WHEN WHITEMAN APCH IS CLSD, CTC KANSAS CITY ARTCC AT 913-254-8508.

Instrument Procedures

There are no published instrument procedures at 0MU6.

Some nearby airports with instrument procedures:

KHIG - Higginsville Industrial Municipal Airport (3 nm E)
KRCM - Skyhaven Airport (18 nm S)
KSZL - Whiteman Air Force Base (22 nm SE)
3GV - East Kansas City Airport (23 nm W)
KMHL - Marshall Memorial Municipal Airport (25 nm E)
 
Loc | Ops | Rwys | IFR | FBO | Links
Com | Nav | Svcs | Stats | Notes
Area around 0MU6 (Bradbury-Rolf Memorial Heliport)
 
Road maps at: MapQuest Bing Google
 
Aerial photo
No photo
 
Sectional chart

 
Airport distance calculator
Flying to Bradbury-Rolf Memorial Heliport? Find the distance to fly.

From to 0MU6

Sunrise and sunset
Times for 28-Oct-2020
 Local
(UTC-5)
 Zulu
(UTC)
Morning civil twilight07:1312:13
Sunrise07:4012:40
Sunset18:1723:17
Evening civil twilight18:4523:45

Current date and time
Zulu (UTC)  28-Oct-2020 11:30:37
Local (UTC-5)  28-Oct-2020 06:30:37
 
METAR
KRCM 
18nm S 
280935Z AUTO 00000KT 10SM BKN003 OVC043 01/00 A3014 RMK AO2
KSZL 
23nm SE 
280855Z 00000KT 3SM BR OVC003 01/01 A3010 RMK AO2A UPB28E37 SLP203 P0000 60000 T00100010 57019 $
KMHL 
25nm E 
280935Z AUTO 00000KT 7SM SCT003 OVC050 01/00 A3014 RMK AO2
KLXT 
30nm W 
280853Z AUTO 21005KT 7SM OVC048 01/00 A3014 RMK AO2 SLP215 T00110000 58020
KGPH 
31nm NW 
280935Z AUTO 18004KT 10SM OVC060 02/M01 A3012 RMK AO2
KDMO 
34nm SE 
280936Z AUTO 00000KT 7SM BKN003 BKN019 OVC037 02/01 A3014 RMK AO2 T00170006
TAF
KSZL 
23nm SE 
280417Z 2804/2909 VRB06KT 8000 BR BKN006 BKN013 OVC022 621306 QNH3009INS TEMPO 2806/2813 36003KT 3200 BR OVC003 BECMG 2813/2814 06006KT 9999 NSW BKN009 QNH2996INS BECMG 2822/2823 03009KT 9999 OVC005 621606 QNH2989INS TEMPO 2903/2906 8000 -RA 621109 BECMG 2905/2906 03009KT 8000 -RA OVC025 621109 QNH2987INS TX07/2821Z TN01/2805Z
NOTAMs
Click for the latest NOTAMs
NOTAMs are issued by the DoD/FAA and will open in a separate window not controlled by AirNav.

 

 
 

Would you like to see your business listed on this page?

 If your business provides an interesting product or service to pilots, flight crews, aircraft, or users of the Bradbury-Rolf Memorial Heliport, you should consider listing it here.  To start the listing process, click on the button below
 
Add a business
 

Other Pages about Bradbury-Rolf Memorial Heliport

Update a link
 
Copyright © AirNav, LLC. All rights reserved. Privacy Policy  Contact